Regional Weather Roundup
Issued by NWS

Home | Current Version | Previous Version | Text Only | Print | Product List | Glossary Off
Versions: 1 2 3 4 5 6 7 8 9 10 11 12 13 14 15 16 17 18 19 20 21 22 23 24 25 26 27 28 29 30 31 32 33 34 35 36 37 38 39 40 41 42 43 44 45 46 47 48 49 50

000
ASUS45 KCYS 221110
RWRWY

WYOMING REGIONAL WEATHER ROUNDUP
NATIONAL WEATHER SERVICE CHEYENNE WY
500 AM MDT MON MAY 22 2017

NOTE:  "FAIR" INDICATES FEW OR NO CLOUDS BELOW 12,000 FEET
WITH NO SIGNIFICANT WEATHER AND/OR OBSTRUCTIONS TO VISIBILITY.

WYZ001-221200-
YELLOWSTONE NATIONAL PARK

CITY           SKY/WX    TMP DP  RH WIND       PRES   REMARKS
LK YELLOWSTONE   N/A     27  26  96 CALM      30.35F
W YELLOWSTONE  NOT AVBL

$$
WYZ002>013-054>058-071-098>099-221200-
NORTHERN WYOMING

CITY           SKY/WX    TMP DP  RH WIND       PRES   REMARKS
JACKSON        FAIR      28  27  93 NE5       30.32S WCI  23
CODY           FAIR      50  33  52 SW5       30.19F
GREYBULL       CLOUDY    48  33  56 CALM      30.14F
WORLAND        MOCLDY    44  40  85 SE6       30.14F
SHERIDAN       CLOUDY    46  41  82 NW3       30.12R
BUFFALO        FAIR      47  36  65 N12G21    30.14F
GILLETTE       MOCLDY    43  41  93 W3        30.09F
HULETT         CLOUDY    45  41  87 MISG      30.08F
NEWCASTLE      FAIR      41  37  87 N6        30.09F

$$
WYZ014>020-022>026-101>103-221200-
CENTRAL WYOMING

CITY           SKY/WX    TMP DP  RH WIND       PRES   REMARKS
BIG PINEY      FAIR      30  29  96 CALM      30.32F
PINEDALE       FAIR      28  28 100 NW7       30.32F WCI  21
DUBOIS         FAIR      34  28  80 SW3       30.28S
LANDER         FAIR      42  31  64 W7        30.21S
RIVERTON       FAIR      42  37  82 NW13      30.21F
CASPER         FAIR      38  35  89 SW9       30.18S WCI  31
DOUGLAS        FAIR      36  32  85 N6        30.15F WCI  31

$$
WYZ021-027>030-104>119-221200-
SOUTHERN WYOMING

CITY           SKY/WX    TMP DP  RH WIND       PRES   REMARKS
EVANSTON       FAIR      38  37  97 S5        30.31F WCI  34
KEMMERER         N/A     34  32  93 N9        30.32F WCI  26
FORT BRIDGER   FAIR      37  36  93 W8        30.33S WCI  31
ROCK SPRINGS   FAIR      37  34  89 W6        30.29F WCI  32
DIXON            N/A     32  30  93 CALM      30.31F
RAWLINS        FAIR      31  26  82 E3        30.26S
LARAMIE        FAIR      27  26  96 SW7       30.22F FOG     WCI  19
CHEYENNE       FAIR      36  30  79 W12       30.19F WCI  28
TORRINGTON     FAIR      39  37  92 NW5       30.11F
PINE BLUFFS    FAIR      34  32  93 MISG      30.17F

$$



USA.gov is the U.S. government's official web portal to all federal, state and local government web resources and services.